Theta_e
319 320 319 317 322 321 324 325 328 327 328 328 327 327 326 329 331 332 334 333 332 332 333 337 335 334 333 332 331 330 330 332 332 332 333 332 333 331 331 332 331 330 323 316
318 320 318 317 319 324 325 328 327 326 326 326 327 328 326 329 329 331 333 334 334 334 335 336 334 333 333 333 334 333 332 332 332 333 333 331 331 330 331 331 329 321 315 314
319 320 319 320 319 321 320 323 328 328 327 325 325 328 327 326 328 330 331 333 334 334 336 335 333 333 332 333 333 334 333 333 333 333 333 333 332 330 329 327 319 314 313 311
317 316 320 320 320 320 317 320 322 324 328 329 326 333 328 326 325 328 330 331 333 333 335 334 334 334 332 332 333 333 332 333 333 333 333 332 331 330 326 318 313 312 310 308
316 315 320 322 322 322 323 320 321 321 325 325 328 330 327 326 326 325 328 332 333 333 334 334 332 330 329 330 331 332 332 332 331 330 329 329 328 324 317 313 311 309 306 304
313 313 314 319 320 320 322 322 321 321 321 324 325 329 328 327 325 325 325 331 333 333 332 331 328 327 326 327 329 329 329 329 327 326 325 324 321 315 312 310 308 305 304 303
315 315 314 315 321 321 322 322 323 324 324 328 324 327 327 326 324 323 324 330 333 331 328 326 323 322 321 323 323 324 324 324 322 320 318 314 313 310 308 306 305 304 303 303
314 318 316 316 321 322 323 321 324 329 328 326 323 325 327 322 318 319 325 331 328 325 323 321 318 317 318 318 319 319 317 317 313 312 311 309 306 306 305 303 302 302 303 303
315 316 316 316 317 319 323 324 318 320 317 324 325 324 322 319 317 318 322 322 321 319 318 314 312 313 315 315 314 313 312 311 309 307 306 306 305 304 303 304 306 310 311 308
313 315 316 317 316 318 320 318 322 321 325 328 326 324 326 321 319 317 318 318 317 315 313 311 310 311 310 309 309 308 307 306 305 305 304 306 308 309 310 311 311 311 306 300
312 313 315 316 315 317 319 321 321 322 321 326 324 322 309 321 320 316 316 317 314 311 309 309 309 308 308 307 306 305 307 308 310 311 312 312 312 311 310 309 303 300 299 297
310 313 311 315 311 311 314 319 321 323 321 317 319 320 310 312 318 315 316 314 312 310 308 308 306 305 305 308 309 310 311 311 311 312 313 312 310 311 305 301 301 299 297 295
309 310 309 314 314 313 314 316 319 317 317 317 324 319 310 316 315 315 313 312 310 308 307 306 307 310 312 312 312 312 312 311 311 312 312 311 309 304 301 300 299 298 296 294
307 311 311 317 316 314 316 315 317 319 319 317 317 313 310 317 314 313 312 311 309 308 307 311 313 312 312 312 314 315 315 313 312 311 310 308 303 301 300 299 298 297 295 293
308 310 311 310 310 312 316 317 318 319 320 319 319 314 311 314 314 312 312 310 309 309 309 311 312 312 313 314 314 313 312 312 311 310 308 303 302 301 300 299 297 295 293 292
307 309 312 311 311 313 314 315 317 317 317 317 315 313 309 311 315 312 311 310 310 310 310 312 314 314 314 314 313 312 311 310 309 308 304 302 301 300 299 298 296 294 292 291
308 310 312 313 310 312 311 312 316 316 316 317 317 310 308 309 313 313 311 311 312 312 312 314 315 315 314 314 313 311 310 310 307 304 303 302 301 300 298 297 295 293 292 291
303 307 309 311 310 312 310 306 315 317 316 314 310 309 309 309 308 313 313 312 314 314 314 314 314 314 314 313 312 311 309 306 305 304 304 303 301 299 297 296 294 292 291 290
301 306 309 307 306 311 304 305 313 315 317 313 312 308 307 307 307 308 311 314 314 315 315 315 316 316 314 314 314 313 307 305 304 304 304 302 300 298 296 295 293 291 290 290
303 307 307 308 307 309 306 306 310 313 314 303 312 308 306 306 308 306 307 309 310 312 313 314 314 314 315 316 315 312 306 305 305 304 303 301 298 297 296 295 293 291 290 289
308 308 311 309 306 309 300 303 306 311 311 301 307 309 307 306 306 305 306 307 307 308 308 309 309 311 312 311 309 307 305 305 304 303 301 300 298 296 296 294 292 290 289 288
305 305 304 300 304 307 298 304 310 302 302 302 306 308 307 306 305 305 305 306 306 306 306 307 307 307 306 306 306 305 305 304 303 302 300 298 297 296 295 293 292 290 288 288
304 303 305 303 302 296 298 300 299 300 301 303 305 306 306 305 304 304 304 304 305 305 305 305 305 305 305 305 305 304 304 303 302 300 298 296 296 296 295 293 291 290 288 288
298 298 298 297 296 297 298 299 299 300 302 302 303 304 304 304 303 304 304 303 303 302 302 302 303 303 304 304 304 303 302 301 299 297 296 296 296 295 294 293 291 290 289 288
298 297 297 296 297 298 298 299 299 300 300 301 301 302 301 301 300 300 300 300 299 299 299 299 299 300 300 300 299 299 298 297 296 296 296 296 296 295 294 293 292 291 289 287
296 295 297 297 296 297 298 299 299 299 299 299 300 300 299 299 299 299 299 299 298 298 298 298 298 298 298 298 298 298 297 297 296 296 296 296 296 295 294 293 292 291 290 288
Wind_Speed
9 5 8 14 14 7 5 14 9 14 8 17 17 12 8 15 15 17 24 23 18 20 22 23 25 22 21 18 18 16 17 15 16 15 14 14 14 11 10 9 7 6 6 7
5 11 13 9 15 9 11 11 19 9 7 2 12 12 10 9 14 18 18 23 22 22 25 25 24 22 21 21 19 17 16 17 15 11 10 12 12 11 9 8 6 5 4 2
6 0 8 12 14 1 6 4 6 4 7 2 6 13 17 8 10 17 15 9 20 25 28 28 25 23 21 21 20 20 21 20 17 17 18 17 15 11 9 7 4 2 0 2
3 7 5 13 13 8 2 1 3 3 14 10 7 6 14 14 8 9 18 18 18 24 28 28 25 23 23 25 25 25 22 20 21 20 20 17 14 13 9 5 3 3 3 3
3 7 1 6 6 12 4 8 6 3 2 3 4 3 11 15 14 13 15 26 27 26 27 25 24 24 24 23 22 21 20 18 17 16 14 16 15 11 7 6 6 4 3 3
2 2 3 4 2 12 10 6 5 4 1 3 6 2 5 12 16 13 17 26 31 32 29 26 24 24 23 21 21 20 19 19 20 20 18 15 11 10 11 9 6 4 3 3
1 5 2 2 1 2 5 3 2 2 2 0 1 7 6 4 8 3 16 25 28 33 36 32 26 22 21 20 20 20 20 19 18 17 16 14 13 11 8 6 4 4 4 6
4 1 6 4 3 3 9 8 2 1 3 3 3 4 3 5 6 7 12 29 32 31 28 25 23 23 22 22 21 19 18 18 18 19 19 18 16 11 9 8 7 5 6 9
2 2 2 3 4 5 4 4 2 5 1 3 3 4 5 7 5 7 18 27 25 23 21 24 23 22 21 20 20 20 21 23 23 22 20 17 14 12 11 9 8 12 15 15
2 1 4 2 4 2 1 6 4 3 4 3 3 3 2 7 9 8 11 20 24 24 25 23 22 21 22 23 23 24 24 23 22 20 19 16 10 7 5 6 6 11 11 10
5 1 1 2 2 2 3 3 2 0 1 1 4 2 3 6 12 12 11 20 26 28 25 22 20 24 26 26 27 27 26 24 21 15 8 4 4 1 3 9 8 8 7 7
2 3 1 2 2 3 1 3 4 2 3 0 3 1 4 6 10 19 18 24 25 24 22 23 29 31 31 28 27 24 16 10 9 3 2 5 6 11 10 10 8 7 7 8
7 2 2 2 2 1 2 2 2 2 3 1 3 3 4 5 10 20 23 24 25 26 27 32 32 31 27 19 14 11 11 15 16 16 17 15 13 11 10 8 7 8 9 8
4 3 1 3 2 2 2 4 3 4 1 4 4 2 2 5 7 15 21 24 26 27 32 35 33 28 25 23 20 17 16 17 20 20 17 14 13 12 11 10 10 10 10 9
2 1 2 1 2 3 3 7 10 4 3 3 3 3 5 5 8 14 21 24 24 24 30 33 30 28 25 21 17 19 21 21 20 18 17 16 14 13 12 12 12 11 10 9
4 3 3 1 3 3 4 6 9 9 1 2 1 3 4 10 19 19 23 26 26 27 32 29 28 28 25 21 22 22 22 22 20 19 18 17 16 14 14 15 14 12 11 10
3 1 2 2 2 4 3 6 8 3 2 3 3 1 4 2 5 17 22 24 25 28 29 29 30 28 25 26 24 24 24 23 21 20 19 18 17 16 16 16 15 13 12 11
6 4 1 2 1 1 3 2 4 5 5 4 5 3 4 4 4 7 16 23 22 24 26 27 27 26 26 25 25 26 24 22 21 21 20 20 19 19 18 17 16 14 14 14
12 4 3 3 2 4 4 4 5 5 3 5 5 4 4 6 4 4 12 17 19 19 20 23 25 24 25 26 25 27 24 22 22 22 21 20 20 19 19 18 17 17 17 17
10 3 1 3 4 4 1 1 4 2 1 8 6 8 8 9 2 3 12 12 16 18 18 20 21 22 25 27 26 25 24 23 22 21 21 21 21 21 19 19 19 19 19 20
5 3 2 2 1 3 2 2 3 4 2 6 3 12 15 4 1 8 9 10 10 10 11 12 14 16 18 19 20 22 23 23 20 21 22 21 20 20 20 22 22 22 23 22
4 4 3 1 2 4 4 3 1 1 2 1 9 11 11 9 13 11 10 9 7 5 6 7 9 12 14 16 18 20 22 20 21 21 20 20 21 22 23 25 25 25 25 24
1 2 2 3 3 1 4 4 2 2 2 3 8 11 15 15 12 8 8 7 5 4 2 3 5 7 10 13 14 16 16 17 19 19 20 21 22 24 26 26 27 27 27 26
4 2 1 2 3 2 5 8 5 7 11 10 12 12 10 15 11 12 11 9 7 5 3 1 2 3 4 6 8 11 13 17 19 20 21 23 25 26 27 27 28 29 28 27
2 4 5 2 2 4 7 10 13 18 17 17 17 17 17 14 14 11 9 6 3 2 3 4 6 7 8 9 12 14 16 19 21 22 24 26 27 28 29 30 29 30 29 28
5 1 1 3 3 3 5 11 14 18 19 18 17 16 13 10 9 6 4 4 5 6 7 8 9 11 12 15 17 18 21 24 26 28 29 30 30 31 32 32 31 31 31 30
Wind_Direction
164 168 203 229 243 228 243 198 206 177 193 192 190 223 180 169 172 202 164 166 182 191 188 174 174 172 172 175 173 185 178 181 181 189 182 193 202 225 230 243 264 285 302 307
191 215 206 208 289 232 259 203 206 203 126 358 198 204 235 164 185 183 160 166 178 183 180 183 173 175 174 170 174 181 184 186 191 191 191 214 219 228 231 236 251 273 293 309
243 310 143 181 233 347 350 350 162 185 186 283 309 217 203 207 184 179 157 188 176 179 179 175 176 177 179 178 179 180 184 185 177 187 197 202 215 227 218 220 240 252 156 64
265 327 185 206 224 164 276 173 359 347 163 201 222 212 207 197 189 160 178 194 184 179 173 180 176 172 179 177 180 189 194 192 193 202 211 219 216 215 217 211 188 138 103 57
91 18 307 196 241 169 145 155 191 19 184 119 204 218 208 185 206 178 174 179 182 190 174 172 170 178 188 188 187 188 191 190 189 191 196 198 206 204 195 161 148 128 106 80
52 52 298 310 270 180 136 138 94 79 104 185 187 223 256 185 195 176 181 182 182 169 168 168 177 183 184 181 182 185 185 184 184 189 189 197 202 182 162 155 146 116 80 45
117 210 219 276 242 155 124 115 107 150 161 142 280 187 263 15 356 174 174 170 167 152 156 160 169 177 175 175 176 181 183 179 179 182 181 173 163 150 141 125 117 97 59 17
162 258 179 183 269 165 184 169 114 5 157 110 359 199 255 86 40 11 121 135 132 147 158 163 169 174 174 175 176 173 169 165 158 153 148 143 135 133 129 110 89 59 24 356
64 226 110 17 24 338 160 186 312 101 279 107 202 252 282 145 104 85 99 117 126 137 146 152 165 173 172 168 163 160 157 150 144 141 135 131 126 105 86 69 20 335 323 309
47 289 13 105 12 17 236 132 84 333 146 185 178 262 228 158 156 147 129 126 131 137 145 154 168 165 158 154 149 146 143 137 129 124 117 104 78 60 23 349 312 283 278 279
138 195 31 153 102 317 90 133 122 26 353 164 146 216 330 194 169 155 149 142 138 147 156 164 160 151 148 144 142 139 135 128 120 109 107 51 53 105 297 270 254 255 285 300
317 13 52 71 187 307 286 333 160 175 218 116 125 33 349 316 139 144 147 141 151 161 165 163 151 145 143 142 138 134 130 127 125 85 241 233 196 233 236 236 257 283 292 300
347 242 338 119 115 52 224 231 285 42 34 132 76 298 351 61 100 135 137 145 149 157 162 154 149 145 144 145 154 178 194 201 233 240 206 212 233 240 237 249 267 278 281 290
20 308 46 31 55 339 186 200 300 159 112 159 212 186 169 123 127 130 138 147 151 163 163 156 158 166 177 182 193 206 206 192 187 197 219 234 237 238 243 255 267 271 277 286
297 267 284 129 49 19 299 199 192 246 204 112 15 84 162 177 148 140 144 150 156 166 172 173 174 183 188 194 195 181 181 190 207 223 235 235 237 240 248 258 263 268 276 287
199 292 156 79 307 41 323 311 192 201 219 95 307 103 21 155 146 148 165 167 171 177 182 187 192 191 193 199 192 194 202 214 226 234 234 239 240 242 249 258 264 268 274 288
293 169 274 136 313 14 295 231 202 157 241 119 148 79 115 67 164 171 178 179 177 184 191 194 194 200 206 203 203 211 220 230 232 235 237 240 242 246 251 259 264 269 276 283
306 136 231 129 176 47 271 325 214 179 210 147 118 120 110 147 130 173 189 185 186 198 199 202 208 217 214 213 219 228 233 231 234 239 242 243 245 248 254 260 267 274 276 276
210 263 145 157 195 266 167 195 174 162 231 207 145 106 103 115 131 188 188 196 203 207 218 225 230 229 223 227 234 236 234 233 237 242 245 247 248 253 259 264 268 272 272 271
186 171 125 165 131 187 297 317 144 253 49 351 180 157 149 149 144 234 192 197 209 214 219 227 236 236 233 238 240 235 236 240 244 249 251 249 251 256 264 271 273 272 269 268
116 116 198 285 244 300 21 290 328 108 201 314 84 171 160 171 186 141 161 173 181 191 201 209 219 232 238 237 236 236 240 246 251 250 251 254 259 267 274 275 274 271 266 267
138 132 180 11 55 261 8 65 159 272 292 357 99 137 144 122 124 130 133 141 157 177 193 206 218 226 233 237 241 245 250 254 253 252 255 261 268 272 275 275 274 272 270 270
115 126 166 166 221 319 38 91 52 65 37 71 108 131 142 126 124 113 103 102 103 108 139 203 228 237 242 247 250 251 250 250 250 253 258 264 270 276 278 279 277 274 272 274
321 76 245 113 347 95 43 72 51 84 103 107 125 124 119 117 115 111 104 101 95 84 70 38 325 291 275 264 262 261 256 253 253 258 267 273 277 280 281 281 278 276 277 277
200 180 188 122 103 131 78 85 94 96 100 106 106 105 104 108 107 104 101 94 80 37 343 323 316 309 303 288 278 269 264 261 266 271 274 278 282 283 284 284 283 281 279 276
346 348 69 153 87 91 102 111 107 106 102 101 102 102 98 89 84 78 60 20 348 334 320 311 301 294 289 283 280 279 276 274 276 278 280 282 282 282 282 283 283 282 281 277